Location: Champs
(48.8539°N, 2.6040°E)
Time: 20:10:42
(UTC+00:00)

ATLAS CENTAUR R/B - Pass Details

Date: 31 May 2022
Orbit: 443 x 688 km, 64.6° (Epoch: 07 June)

Event Time Altitude Azimuth Distance (km) Brightness Sun altitude
Rises 20:50:15 0° 322° (NW) 3,065 7.6 -8.9°
Reaches altitude 10° 20:52:41 10° 327° (NNW) 2,139 6.0 -9.2°
Maximum altitude 20:57:29 52° 44° (NE) 831 2.3 -9.7°
Enters shadow 21:01:45 12° 121° (ESE) 1,928 3.5 -10.1°
